Вернуться в каталог

CZ-6A DEB

АктивенPO
NORAD 61451·DEBRIS·🇨🇳 China

Запущен Aug 6, 2024 с Taiyuan Satellite Launch Center

Loading…

Ближайшие Пролёты (ближайшие 24 часа)

TLE

СвежийSource: Space-Track

Эпоха: Sep 14, 2026, 06:44 UTC

1 61451U 24140ZH  26257.28092616  .00004308  00000-0  72652-3 0  9994
2 61451  89.0328 262.6509 0106446 292.7779  66.2218 14.65619545106304

Отслеживайте CZ-6A DEB в реальном времени с AllMySat

Download on the App Store